Location: Newark
(44.3681°N, 100.3364°W)
Time: 08:56:18
(UTC+00:00)

Explorer 7 - Pass Details

Date: 18 February 2020
Orbit: 485 x 679 km, 50.3° (Epoch: 08 April)

Event Time Altitude Azimuth Distance (km) Brightness Sun altitude
Rises 01:50:59 0° 297° (WNW) 2,699 11.5 -18.2°
Reaches altitude 10° 01:53:17 10° 296° (WNW) 1,774 10.4 -18.6°
Maximum altitude 01:57:16 74° 211° (SSW) 531 6.7 -19.3°
Enters shadow 01:58:14 48° 140° (SE) 664 6.9 -19.5°
Drops below altitude 10° 02:01:04 10° 126° (SE) 1,686 - -20.0°
Sets 02:03:12 0° 125° (SE) 2,551 - -20.4°
